Вернуться в каталог

COSMOS 2251 DEB

АктивенLEO
NORAD 35759·DEBRIS·🇷🇺 Russia

Запущен Jun 16, 1993 с Plesetsk Cosmodrome

Loading…

Ближайшие Пролёты (ближайшие 24 часа)

TLE

СвежийSource: Space-Track

Эпоха: Sep 13, 2026, 02:25 UTC

1 35759U 93036ARD 26256.10089344  .00000933  00000-0  17048-3 0  9998
2 35759  74.0357  48.0345 0074852  97.4938 263.4743 14.65632672701545

Отслеживайте COSMOS 2251 DEB в реальном времени с AllMySat

Download on the App Store